Погода в Бузулуке

Погода в Бузулуке : погода сейчас, прогноз погоды и архив. Всё, что Вы хотите узнать о погоде в Бузулуке!

Хотите узнать прогноз погоды в Бузулуке? Тогда Вам сюда: Погода в Бузулуке

Поиск расширенной информации на нашем сайте:

Другие новости

Новости СМИ2

Главная страница сайта

Новости сайта

03.07.2017

Напоминаем, что на нашем специализированном сайте Метеоцентр.Азия вы можете получить высокодетализированные автоматические прогнозы погоды по пунктам России, СНГ и мира в авиационном формате (включающие направление и скорость ветра, видимость, явления погоды, количество и форму облачности, нижнюю и верхнюю границу облачности).


Погода в Бузулуке - сегодня

Время (UTC), дата Ветер
(°,м/с) 
Видим.   Явления Облачность Т
(°С)
Тd
(°С)
f(%) Тe
(°С)
Pmin
(гПа)
dP
(гПа)
Po
(мм)
O2
(г/м3)
Тmin Tmax R s Состояние
почвы
18 16.10.18 140 (ЮВ) 10 км  дымка  ясно 
+6.9 +6.7 99 +8  1021  758  297           
03 17.10.18 120 (ЮВ) 10 км    9/5 300 м средняя 
[Sc|Ac As]
+2.4 +2.2 99 +3  1018.3  -0.9  756  302  +2.1    0.0    сухая 
06 17.10.18 160 (Ю) 10 км    5/0 средняя, верхняя 
[Ac trans|Ci fib]
+10.2 +7.4 83 +11  1016.5  -1.5  755  292           
09 17.10.18 280 (З) 10 км    3/0 верхняя 
[Ci fib]
+16.7 +4.5 44 +17  1014.8  -1.5  754  286           
15 17.10.18 310 (СЗ) 3{12}  10 км    6/3 600 м верхняя 
[Sc|Ci fib]
+11.4 +4.9 64 +11  1018  756  292    +18.2       
18 17.10.18 330 (СЗ) 10 км    5/0 верхняя 
[Ci sp]
+8.9 +4.7 75 +9  1020  1.8  758  295           
21 17.10.18 340 (С) 10 км    ясно 
+5 +0.4 72 +6  1022.4  2.2  759  300           
00 18.10.18 280 (З) 10 км    ясно 
+2 +0.3 88 +1  1024.3  1.8  761  304           
03 18.10.18 350 (С) 10 км    8/3 600 м средняя, верхняя 
[Sc|Ac trans|Ci fib]
-1.4 -1.6 99 -1  1025.4  0.9  761  309  -2.6        замёрзшая 
06 18.10.18 300 (СЗ) 10 км    5/3 600 м средняя, верхняя 
[Sc|Ac trans|Ci fib]
+4.4 +1.5 81 +4  1026.2  762  302           
09 18.10.18 310 (СЗ) 10 км    4/0 средняя, верхняя 
[Ac trans|Ci fib]
+11 +0.4 48 +11  1025.3  -0.7  762  295           
12 18.10.18 280 (З) 10 км    3/0 верхняя 
[Ci fib]
+12 -1.3 40 +12  1024  -1.2  761  294           
18 18.10.18 тихо ()   10 км    ясно 
+1.2 -1.9 80 +1  1023.8  -0.5  760  305           
21 18.10.18 150 (ЮВ) 10 км    6/0 средняя 
[Ac trans]
+1.3 -1.2 83 +2  1023.1  -0.7  760  305           
00 19.10.18 120 (ЮВ) 10 км    9/0 средняя 
[Ac trans]
+2.7 -0.6 79 +3  1022.2  -0.8  759  303           
03 19.10.18 090 (В) 10 км    3/3 600 м 
[Sc]
+2.1 -0.1 85 +3  1021.2  -1  758  303  +0.2        сухая 
06 19.10.18 240 (ЮЗ) 10 км    ясно 
+10.9 +4.2 63 +11  1020.2  -0.7  758  293           
09 19.10.18 260 (З) 10 км    1/0 верхняя 
[Ci fib]
+16.9 +5.7 48 +17  1018.6  -1.3  757  286           
12 19.10.18 250 (З) 10 км    3/0 верхняя 
[Ci fib]
+18.3 +5.6 43 +19  1017.2  -1.3  756  285           
18 19.10.18 210 (ЮЗ) 10 км    ясно 
+11.1 +6 71 +11  1017.5  -0.4  756  292           
21 19.10.18 210 (ЮЗ) 10 км    8/0 средняя 
[Ac trans]
+11.7 +5.2 64 +12  1016.7  -0.8  755  291           
00 20.10.18 190 (Ю) 10 км    5/0 средняя 
[Ac trans]
+10.3 +4.1 65 +10  1015.7  -0.6  755  292           
03 20.10.18 190 (Ю) 10 км    3/3 300 м верхняя 
[Sc|Ci fib]
+7.4 +2.4 71 +7  1015.3  -0.5  754  295  +7        сухая 
06 20.10.18 220 (ЮЗ) 10 км    4/1 300 м верхняя 
[Sc|Ci fib]
+11.2 +2.5 55 +11  1015.1  754  292           
09 20.10.18 240 (ЮЗ) 10 км    4/0 средняя, верхняя 
[Ac trans|Ci fib]
+16.1 +2.7 41 +16  1013.7  -1.2  753  286           
Время (UTC), дата Ветер
(°,м/с) 
Видим.   Явления Облачность Т
(°С)
Тd
(°С)
f(%) Тe
(°С)
Pmin
(гПа)
dP
(гПа)
Po
(мм)
O2
(г/м3)
Тmin Tmax R s Состояние
почвы

Для получения пояснительной информации подведите курсор к названию столбца.

ПОГОДА в Бузулуке - архив

Всё, что Вы хотите узнать о погоде в Бузулуке - удобно и подробно!

Выберите нужную дату (начиная с 1 января 2015* года) и нажмите кнопку "Найти".
Будут отображены архивные сводки погоды по пункту Бузулук, начиная с указанной даты.


Отображать данные в формате CSV (для использования в таблицах Excel)


Внимание! Наш архив погоды предназначен исключительно для личного некоммерческого использования в познавательных целях. Если Вам необходимы официальные справки о состоянии погоды (для производственных, юридических, коммерческих и т.п. целей), обращайтесь в органы Росгидромета.

*Примечание: данная дата относится к архиву по метеостанциям СССР (Россия, СНГ, Балтия).
Архив по метеостанциям Зарубежной Европы и Азии (кроме Китая) хранится 10 дней, по другим регионам земного шара (Китай, Африка, Америка, Австралия, Океания) - 1 день.

Бузулук - район местоположения метеостанции


Название, широта, долгота, высота метеостанции:
Бузулук 52.8°ш. 52.2°д. 80 м над ур. моря [Российская Федерация]

Дополнительная информация

В oтличие oт бoльшинства пoгoдных сайтoв мы публикуем пoдрoбную метеoинфoрмацию в детальнoм прoфессиoнальнoм фoрмате.

Характеристики температуры и влажнoсти вoздуха измеряются на высoте 2 м в тени вдали oт зданий и деревьев.
Скoрoсть ветра измеряется на высoте 10 м (на урoвне рoста челoвека скoрoсть ветра ниже в 1.5-2 раза). Если метеoстанция нахoдится в гoрoде или в лесу, тo скoрoсть ветра занижена на 2-4 м/с пo сравнению с oткрытым местoм. Скoрoсть ветра над акватoриями крупных рек и oзёр, а также на вершинах хoлмoв на 2-5 м/с выше, чем в oбычных услoвиях.
Атмoсфернoе давление в разных тoчках местнoсти мoжет значительнo oтличаться oт давления на метеoстанции, в зависимoсти oт услoвий рельефа (при пoдъёме на 10 м давление пoнижается примернo на 1 мм рт.ст.).